Location: Rathdrum
(47.8130°N, 116.8960°W)
Time: 20:41:51
(UTC-07:00)

Amateur Radio Satellites - All Passes

Search period start: 25 October 2014 20:11
Search period end: 26 October 2014 20:11
Location: Rathdrum, 47.8130°N, 116.8960°W

Satellite Date Start Highest point End Downlink Frequencies (MHz)
Time Altitude Azimuth
OPAL 25 Oct 20:16:09 20:18:35 14° 309° (NW) 20:21:01 ?
RS-15 25 Oct 20:17:22 20:23:19 16° 96° (E) 20:29:14 29.354 - 29.394 USB, Beacon 29.352 USB
STRAND 1 25 Oct 20:21:37 20:26:41 58° 290° (WNW) 20:31:43 ?
HO-68 25 Oct 20:36:29 20:43:39 82° 70° (ENE) 20:50:52 435.675 MHz FM
ZACube-1 25 Oct 20:43:07 20:45:33 15° 59° (ENE) 20:47:58 437.345 MHz
UKube-1 25 Oct 20:44:32 20:48:24 32° 66° (ENE) 20:52:17 145.840 MHz, 145.915 MHz
UOSAT-12 25 Oct 21:18:36 21:22:22 23° 32° (NNE) 21:26:06 437.025 FM, 437.400 FM
Oscar 11 25 Oct 21:24:36 21:28:53 68° 73° (ENE) 21:33:12 145.825 FM, Beacon 2401.500 USB
FUNcube-1 25 Oct 21:25:35 21:29:40 33° 67° (ENE) 21:33:41 145.950 - 145.970 MHz USB
KITSAT 1 25 Oct 21:33:34 21:41:30 62° 242° (WSW) 21:49:23 435.175 FM
SO-50 25 Oct 21:40:51 21:45:34 53° 238° (WSW) 21:50:19 436.795 FM
STRAND 1 25 Oct 22:03:56 22:04:49 10° 309° (NW) 22:05:42 ?
Oscar 10/S400 25 Oct 22:10:26 22:57:54 37° 211° (SSW) 04:12:44 145.825 - 145.975 CW/USB, Beacon 145.810 USB
ZACube-1 25 Oct 22:16:47 22:21:22 81° 257° (WSW) 22:25:54 437.345 MHz
UKube-1 25 Oct 22:20:45 22:24:34 30° 264° (W) 22:28:26 145.840 MHz, 145.915 MHz
RS-15 25 Oct 22:22:34 22:33:22 67° 119° (ESE) 22:44:09 29.354 - 29.394 USB, Beacon 29.352 USB
HO-68 25 Oct 22:26:50 22:32:10 22° 270° (W) 22:37:32 435.675 MHz FM
MaSat-1 25 Oct 22:49:04 22:51:38 17° 108° (ESE) 22:54:05 437.345 MHz
UOSAT-12 25 Oct 22:58:21 23:03:06 84° 234° (SW) 23:07:46 437.025 FM, 437.400 FM
FUNcube-1 25 Oct 23:02:00 23:06:02 30° 265° (W) 23:10:02 145.950 - 145.970 MHz USB
Oscar 11 25 Oct 23:03:19 23:05:32 14° 271° (W) 23:07:47 145.825 FM, Beacon 2401.500 USB
KITSAT 1 25 Oct 23:32:00 23:35:14 13° 263° (W) 23:38:29 435.175 FM
MaSat-1 26 Oct 00:23:06 00:26:59 50° 303° (WNW) 00:30:29 437.345 MHz
RS-15 26 Oct 00:35:47 00:46:17 50° 326° (NW) 00:56:56 29.354 - 29.394 USB, Beacon 29.352 USB
UOSAT-12 26 Oct 00:40:30 00:42:29 13° 252° (WSW) 00:44:28 437.025 FM, 437.400 FM
JAS-1B 26 Oct 01:03:46 01:08:18 18° 90° (E) 01:13:16 435.800 - 435.900 CW/SSB
Oscar 19 26 Oct 01:04:37 01:07:10 14° 87° (E) 01:09:42 437.125 CW, 437.150 USB
AO-Echo 26 Oct 01:34:56 01:38:00 15° 87° (E) 01:41:03 ?
Oscar 16 26 Oct 01:49:05 01:53:45 34° 96° (E) 01:58:23 437.025 USB, Beacon 2401.1428
Uribyol 2 26 Oct 02:11:21 02:15:35 25° 93° (E) 02:19:46 436.500 FM
ITAMSAT 1 26 Oct 02:17:38 02:22:00 26° 93° (E) 02:26:20 435.822 SSB
PCSat 26 Oct 02:19:48 02:21:27 11° 101° (ESE) 02:23:06 145.825 MHz
Oscar 19 26 Oct 02:42:03 02:47:13 86° 286° (WNW) 02:52:20 437.125 CW, 437.150 USB
Gurwin Techsat 1B 26 Oct 02:45:16 02:49:41 26° 93° (E) 02:54:05 435.225 FM
RS-15 26 Oct 02:52:21 03:01:54 33° 359° (N) 03:11:40 29.354 - 29.394 USB, Beacon 29.352 USB
JAS-1B 26 Oct 02:52:58 02:59:34 89° 106° (ESE) 03:07:28 435.800 - 435.900 CW/SSB
TMSAT-1 26 Oct 02:55:42 02:59:59 24° 92° (E) 03:04:14 436.925 FM
AO-27 26 Oct 03:03:08 03:08:22 64° 102° (ESE) 03:13:32 436.795 MHz FM
AO-Echo 26 Oct 03:12:04 03:17:25 84° 286° (WNW) 03:22:44 ?
AO-7 26 Oct 03:15:29 03:18:39 12° 83° (E) 03:21:49 29.400 - 29.500 MHz
Oscar 16 26 Oct 03:28:27 03:33:07 36° 295° (WNW) 03:37:45 437.025 USB, Beacon 2401.1428
Sapphire 26 Oct 03:36:27 03:41:34 45° 115° (ESE) 03:46:44 437.095 MHz 1200 baud AX-25 AFSK
Uribyol 2 26 Oct 03:50:17 03:55:20 51° 291° (WNW) 04:00:21 436.500 FM
ITAMSAT 1 26 Oct 03:56:42 04:01:44 48° 292° (WNW) 04:06:43 435.822 SSB
PCSat 26 Oct 03:58:30 04:03:53 72° 120° (ESE) 04:09:18 145.825 MHz
OPAL 26 Oct 04:15:27 04:20:14 42° 65° (ENE) 04:25:00 ?
Oscar 19 26 Oct 04:23:01 04:25:49 15° 305° (NW) 04:28:37 437.125 CW, 437.150 USB
Gurwin Techsat 1B 26 Oct 04:24:47 04:29:55 50° 291° (WNW) 04:35:01 435.225 FM
TMSAT-1 26 Oct 04:35:03 04:40:13 53° 291° (WNW) 04:45:21 436.925 FM
AO-27 26 Oct 04:43:31 04:47:26 22° 301° (WNW) 04:51:20 436.795 MHz FM
JAS-1B 26 Oct 04:44:58 04:49:38 21° 304° (NW) 04:54:50 435.800 - 435.900 CW/SSB
JAS-2 26 Oct 04:46:41 04:52:00 19° 85° (E) 04:57:17 435.800 - 435.900 CW/SSB, 435.910 FM
AO-Echo 26 Oct 04:52:24 04:55:24 16° 305° (NW) 04:58:25 ?
Uosat F 26 Oct 04:58:23 05:03:14 45° 99° (E) 05:08:03 435.120 FM
AO-7 26 Oct 05:04:58 05:13:13 61° 104° (ESE) 05:21:26 29.400 - 29.500 MHz
RS-15 26 Oct 05:07:03 05:17:39 48° 32° (NNE) 05:28:34 29.354 - 29.394 USB, Beacon 29.352 USB
Sapphire 26 Oct 05:20:07 05:25:07 37° 316° (NW) 05:30:09 437.095 MHz 1200 baud AX-25 AFSK
PCSat 26 Oct 05:43:16 05:47:49 27° 321° (NW) 05:52:24 145.825 MHz
OPAL 26 Oct 05:54:44 05:59:13 30° 262° (W) 06:03:42 ?
STRAND 1 26 Oct 06:02:10 06:07:00 43° 67° (ENE) 06:11:52 ?
JAS-2 26 Oct 06:30:14 06:38:03 81° 104° (ESE) 06:45:54 435.800 - 435.900 CW/SSB, 435.910 FM
Uosat F 26 Oct 06:37:34 06:41:50 28° 298° (WNW) 06:46:05 435.120 FM
Hamsat 26 Oct 06:48:08 06:52:21 87° 102° (ESE) 06:56:35 145.90 MHz
AO-7 26 Oct 06:58:13 07:05:41 39° 305° (NW) 07:13:09 29.400 - 29.500 MHz
SO-67 26 Oct 06:59:34 07:01:36 15° 91° (E) 07:03:37 435.3500 MHz FM
Sapphire 26 Oct 07:07:42 07:10:11 13° 340° (NNW) 07:12:41 437.095 MHz 1200 baud AX-25 AFSK
RS-15 26 Oct 07:19:47 07:30:50 73° 239° (WSW) 07:42:22 29.354 - 29.394 USB, Beacon 29.352 USB
PCSat 26 Oct 07:31:45 07:33:14 11° 347° (NNW) 07:34:43 145.825 MHz
Saudisat 1A 26 Oct 07:40:26 07:44:47 69° 125° (SE) 07:49:11 436.775 MHz
STRAND 1 26 Oct 07:41:56 07:46:21 29° 266° (W) 07:50:48 ?
HO-68 26 Oct 08:03:36 08:05:58 12° 83° (E) 08:08:21 435.675 MHz FM
JAS-2 26 Oct 08:16:04 08:22:20 29° 303° (WNW) 08:28:42 435.800 - 435.900 CW/SSB, 435.910 FM
Hamsat 26 Oct 08:26:07 08:27:40 12° 302° (WNW) 08:29:14 145.90 MHz
MaSat-1 26 Oct 08:30:10 08:32:51 60° 59° (ENE) 08:35:17 437.345 MHz
SO-67 26 Oct 08:31:31 08:34:47 39° 288° (WNW) 08:38:01 435.3500 MHz FM
AO-7 26 Oct 08:53:16 08:56:10 12° 329° (NNW) 08:59:06 29.400 - 29.500 MHz
PCSat 26 Oct 09:17:48 09:19:20 11° 14° (NNE) 09:20:52 145.825 MHz
Saudisat 1A 26 Oct 09:21:13 09:24:47 23° 325° (NW) 09:28:22 436.775 MHz
RS-15 26 Oct 09:34:03 09:41:14 20° 262° (W) 09:48:36 29.354 - 29.394 USB, Beacon 29.352 USB
HO-68 26 Oct 09:47:59 09:55:09 63° 103° (ESE) 10:02:15 435.675 MHz FM
ZACube-1 26 Oct 10:04:04 10:06:32 15° 89° (E) 10:08:58 437.345 MHz
UKube-1 26 Oct 10:04:57 10:08:59 35° 97° (E) 10:12:58 145.840 MHz, 145.915 MHz
KITSAT 1 26 Oct 10:15:43 10:18:55 13° 97° (E) 10:22:07 435.175 FM
Sapphire 26 Oct 10:37:56 10:41:57 20° 33° (NNE) 10:45:57 437.095 MHz 1200 baud AX-25 AFSK
Oscar 11 26 Oct 10:44:47 10:49:07 86° 103° (ESE) 10:53:26 145.825 FM, Beacon 2401.500 USB
FUNcube-1 26 Oct 10:47:15 10:51:18 40° 98° (E) 10:55:13 145.950 - 145.970 MHz USB
PCSat 26 Oct 11:00:07 11:04:44 27° 39° (NE) 11:09:18 145.825 MHz
Oscar 16 26 Oct 11:33:54 11:35:58 12° 53° (NE) 11:38:01 437.025 USB, Beacon 2401.1428
HO-68 26 Oct 11:36:15 11:42:28 33° 303° (WNW) 11:48:39 435.675 MHz FM
ZACube-1 26 Oct 11:39:09 11:43:22 59° 288° (WNW) 11:47:28 437.345 MHz
UKube-1 26 Oct 11:41:21 11:45:04 28° 295° (WNW) 11:48:45 145.840 MHz, 145.915 MHz
ISS 26 Oct 11:42:03 11:43:53 14° 135° (SE) 11:45:43 145.800 FM
JAS-1B 26 Oct 11:55:20 11:59:06 18° 54° (NE) 12:02:53 435.800 - 435.900 CW/SSB
SO-50 26 Oct 11:59:46 12:03:15 22° 113° (ESE) 12:06:49 436.795 FM
KITSAT 1 26 Oct 12:04:46 12:12:39 61° 118° (ESE) 12:20:35 435.175 FM
ITAMSAT 1 26 Oct 12:04:59 12:05:28 10° 50° (NE) 12:05:57 435.822 SSB
Sapphire 26 Oct 12:20:49 12:26:17 77° 55° (NE) 12:31:43 437.095 MHz 1200 baud AX-25 AFSK
Oscar 11 26 Oct 12:22:50 12:24:40 13° 302° (WNW) 12:26:30 145.825 FM, Beacon 2401.500 USB
Oscar 19 26 Oct 12:24:07 12:28:31 30° 63° (ENE) 12:32:55 437.125 CW, 437.150 USB
FUNcube-1 26 Oct 12:24:07 12:27:28 23° 296° (WNW) 12:30:45 145.950 - 145.970 MHz USB
Gurwin Techsat 1B 26 Oct 12:35:04 12:35:52 10° 50° (NE) 12:36:39 435.225 FM
PCSat 26 Oct 12:43:14 12:48:39 70° 240° (WSW) 12:54:02 145.825 MHz
Saudisat 1A 26 Oct 12:46:38 12:47:36 11° 14° (NNE) 12:48:33 436.775 MHz
AO-27 26 Oct 12:47:00 12:50:57 22° 59° (ENE) 12:54:56 436.795 MHz FM
AO-Echo 26 Oct 12:50:51 12:54:59 27° 62° (ENE) 12:59:14 ?
Oscar 16 26 Oct 13:09:17 13:14:25 70° 72° (ENE) 13:19:33 437.025 USB, Beacon 2401.1428
UOSAT-12 26 Oct 13:15:14 13:17:21 13° 108° (ESE) 13:19:29 437.025 FM, 437.400 FM
ISS 26 Oct 13:16:46 13:20:05 73° 152° (SSE) 13:23:26 145.800 FM
Uribyol 2 26 Oct 13:32:18 13:37:21 52° 69° (ENE) 13:42:26 436.500 FM
ITAMSAT 1 26 Oct 13:38:47 13:43:51 55° 69° (ENE) 13:48:59 435.822 SSB
SO-50 26 Oct 13:38:57 13:43:26 57° 313° (NW) 13:48:04 436.795 FM
JAS-1B 26 Oct 13:43:20 13:49:11 78° 256° (WSW) 13:54:54 435.800 - 435.900 CW/SSB
KITSAT 1 26 Oct 14:00:47 14:08:26 44° 321° (NW) 14:16:07 435.175 FM
Oscar 19 26 Oct 14:02:49 14:07:42 43° 262° (W) 14:12:37 437.125 CW, 437.150 USB
Sapphire 26 Oct 14:05:24 14:09:06 19° 254° (WSW) 14:12:47 437.095 MHz 1200 baud AX-25 AFSK
Gurwin Techsat 1B 26 Oct 14:09:33 14:14:43 56° 70° (ENE) 14:19:56 435.225 FM
AO-7 26 Oct 14:17:01 14:23:50 30° 50° (NE) 14:30:39 29.400 - 29.500 MHz
TMSAT-1 26 Oct 14:19:36 14:24:43 51° 69° (ENE) 14:29:52 436.925 FM
Saudisat 1A 26 Oct 14:24:49 14:28:38 27° 37° (NE) 14:32:27 436.775 MHz
AO-27 26 Oct 14:24:53 14:30:03 62° 258° (WSW) 14:35:16 436.795 MHz FM
AO-Echo 26 Oct 14:28:46 14:33:30 46° 262° (W) 14:38:26 ?
PCSat 26 Oct 14:29:34 14:31:04 11° 259° (WSW) 14:32:33 145.825 MHz
Uosat F 26 Oct 14:39:09 14:41:55 15° 55° (NE) 14:44:42 435.120 FM
Oscar 16 26 Oct 14:50:54 14:54:18 18° 270° (W) 14:57:42 437.025 USB, Beacon 2401.1428
UOSAT-12 26 Oct 14:52:05 14:56:45 86° 127° (SE) 15:01:31 437.025 FM, 437.400 FM
ISS 26 Oct 14:53:43 14:56:57 44° 353° (N) 15:00:10 145.800 FM
JAS-2 26 Oct 15:05:53 15:08:33 13° 43° (NE) 15:11:19 435.800 - 435.900 CW/SSB, 435.910 FM
Uribyol 2 26 Oct 15:12:54 15:17:07 24° 267° (W) 15:21:22 436.500 FM
ITAMSAT 1 26 Oct 15:19:37 15:23:42 23° 268° (W) 15:27:48 435.822 SSB
SO-50 26 Oct 15:22:03 15:25:00 16° 336° (NNW) 15:28:00 436.795 FM
JAS-1B 26 Oct 15:39:50 15:40:59 11° 276° (W) 15:42:07 435.800 - 435.900 CW/SSB
Gurwin Techsat 1B 26 Oct 15:50:52 15:55:02 23° 268° (W) 15:59:14 435.225 FM
KITSAT 1 26 Oct 16:00:08 16:06:12 22° 348° (NNW) 16:12:17 435.175 FM
TMSAT-1 26 Oct 16:00:37 16:04:55 25° 268° (W) 16:09:16 436.925 FM
Saudisat 1A 26 Oct 16:04:09 16:08:29 54° 238° (WSW) 16:12:47 436.775 MHz
AO-7 26 Oct 16:07:34 16:15:52 81° 252° (WSW) 16:24:13 29.400 - 29.500 MHz
Hamsat 26 Oct 16:11:48 16:13:22 12° 58° (ENE) 16:14:57 145.90 MHz
Uosat F 26 Oct 16:14:56 16:19:59 87° 74° (ENE) 16:25:04 435.120 FM
ISS 26 Oct 16:30:44 16:34:00 50° 13° (NNE) 16:37:16 145.800 FM
UOSAT-12 26 Oct 16:33:49 16:37:31 22° 328° (NNW) 16:41:15 437.025 FM, 437.400 FM
JAS-2 26 Oct 16:45:54 16:51:51 51° 66° (ENE) 16:58:37 435.800 - 435.900 CW/SSB, 435.910 FM
SO-50 26 Oct 17:06:52 17:07:34 10° 1° (N) 17:08:15 436.795 FM
Hamsat 26 Oct 17:44:29 17:48:42 86° 257° (WSW) 17:52:54 145.90 MHz
Uosat F 26 Oct 17:57:05 17:59:28 13° 273° (W) 18:01:52 435.120 FM
KITSAT 1 26 Oct 17:58:22 18:04:47 25° 19° (NNE) 18:11:11 435.175 FM
OPAL 26 Oct 18:00:20 18:05:12 51° 103° (ESE) 18:10:00 ?
AO-7 26 Oct 18:04:33 18:09:57 19° 273° (W) 18:15:24 29.400 - 29.500 MHz
ISS 26 Oct 18:07:29 18:10:43 48° 212° (SSW) 18:13:57 145.800 FM
STRAND 1 26 Oct 18:12:02 18:13:07 11° 85° (E) 18:14:11 ?
UOSAT-12 26 Oct 18:18:15 18:19:26 11° 352° (N) 18:20:36 437.025 FM, 437.400 FM
JAS-2 26 Oct 18:31:45 18:37:14 33° 269° (W) 18:43:23 435.800 - 435.900 CW/SSB, 435.910 FM
HO-68 26 Oct 18:36:03 18:40:21 17° 46° (NE) 18:44:40 435.675 MHz FM
SO-50 26 Oct 18:46:58 18:50:06 17° 25° (NNE) 18:53:16 436.795 FM
SO-67 26 Oct 19:06:49 19:10:15 74° 258° (WSW) 19:13:42 435.3500 MHz FM
OPAL 26 Oct 19:39:48 19:43:48 25° 301° (WNW) 19:47:46 ?
RS-15 26 Oct 19:45:59 19:48:05 11° 92° (E) 19:50:10 29.354 - 29.394 USB, Beacon 29.352 USB
STRAND 1 26 Oct 19:48:00 19:53:12 76° 104° (ESE) 19:58:20 ?
KITSAT 1 26 Oct 19:54:09 20:02:07 56° 45° (NE) 20:10:01 435.175 FM
UOSAT-12 26 Oct 19:59:27 20:01:41 13° 17° (NNE) 20:03:55 437.025 FM, 437.400 FM
